Valentine, NE

3:16 PM CDT on September 26, 2017 (GMT -0500)
Miller Field

Weather History for KVTN - February, 2013

Change the Weather History Date:

Saturday, February 16, 2013

  Actual Average Record
Temperature  
Mean Temperature 33 °F 27 °F  
Max Temperature 51 °F 40 °F 72 °F (2017)
Min Temperature 15 °F 15 °F -22 °F (1936)
Degree Days  
Heating Degree Days 32 38  
Month to date heating degree days 529 627  
Since 1 July heating degree days 4464 4805  
Cooling Degree Days 0 0  
Month to date cooling degree days 0 0  
Year to date cooling degree days 0 0  
Moisture  
Dew Point 24 °F    
Average Humidity 67    
Maximum Humidity 92    
Minimum Humidity 42    
Precipitation  
Precipitation T in 0.01 in 0.25 in (1988)
Month to date precipitation 0.54 0.22  
Year to date precipitation 0.79 0.48  
Snow  
Snow T in 0.20 in 5.30 in (1945)
Month to date snowfall 4.0 2.9  
Since 1 July snowfall 22.2 19.4  
Snow Depth 1.00 in    
Sea Level Pressure  
Sea Level Pressure 30.04 in    
Wind  
Wind Speed 7 mph (West)    
Max Wind Speed 23 mph    
Max Gust Speed 29 mph    
Visibility 10 miles    
Events Snow    
T = Trace of Precipitation, MM = Missing Value Source: NWS Daily Summary

Daily Weather History Graph

Daily Weather History Graph

Search for Another Location

Airport or City:

Trip Planner

Search our weather history database for the weather conditions in past years. The results will help you decide how hot, cold, wet, or windy it might be!

Date:

Astronomy

Feb. 16, 2013 Rise Set
Actual Time 7:37 AM CST 6:15 PM CST
Civil Twilight 7:08 AM CST 6:44 PM CST
Nautical Twilight 6:35 AM CST 7:17 PM CST
Astronomical Twilight 6:02 AM CST 7:50 PM CST
Moon 10:41 AM CST (2/16) 12:27 AM CST (2/16)
Length of Visible Light 11h 35m
Length of Day
10h 37m
Waxing Crescent, 39% of the Moon is Illuminated
Feb 16
Waxing Crescent
Feb 17
First Quarter
Feb 25
Full
Mar 4
Last Quarter
Mar 11
New

Hourly Weather History & Observations

Time (CST) Temp. Windchill Dew Point Humidity Pressure Visibility Wind Dir Wind Speed Gust Speed Precip Events Conditions
12:52 AM 16.0 °F 5.3 °F 10.0 °F 77% 30.29 in 10.0 mi SW 8.1 mph - N/A   Scattered Clouds
1:52 AM 19.0 °F 9.0 °F 12.9 °F 77% 30.26 in 10.0 mi SSW 8.1 mph - N/A   Overcast
2:52 AM 21.9 °F 9.2 °F 15.1 °F 75% 30.21 in 10.0 mi SW 13.8 mph - N/A   Overcast
3:52 AM 23.0 °F 13.9 °F 15.8 °F 74% 30.07 in 10.0 mi SSW 8.1 mph - N/A   Overcast
4:52 AM 25.0 °F 17.1 °F 19.0 °F 78% 30.12 in 4.0 mi SW 6.9 mph - 0.00 in Snow Light Snow
5:52 AM 25.0 °F - 21.9 °F 88% 30.09 in 10.0 mi Calm Calm - 0.00 in   Overcast
6:52 AM 27.0 °F 23.0 °F 21.9 °F 81% 30.06 in 10.0 mi WSW 3.5 mph - N/A   Overcast
7:52 AM 30.0 °F 23.2 °F 23.0 °F 75% 30.05 in 10.0 mi West 6.9 mph - N/A   Overcast
8:52 AM 34.0 °F 26.6 °F 25.0 °F 70% 30.05 in 10.0 mi West 9.2 mph - N/A   Overcast
9:52 AM 39.9 °F 32.9 °F 27.0 °F 60% 30.04 in 10.0 mi WNW 11.5 mph - N/A   Partly Cloudy
10:52 AM 44.1 °F 36.2 °F 27.0 °F 51% 30.04 in 10.0 mi NNW 18.4 mph 25.3 mph N/A   Partly Cloudy
11:52 AM 46.9 °F - 28.0 °F 48% 30.03 in 10.0 mi NNW 19.6 mph 28.8 mph N/A   Clear
12:52 PM 48.0 °F - 28.9 °F 48% 30.02 in 10.0 mi NNW 13.8 mph 27.6 mph N/A   Clear
1:52 PM 46.9 °F - 28.9 °F 50% 30.00 in 10.0 mi North 13.8 mph - N/A   Scattered Clouds
2:52 PM 50.0 °F - 28.9 °F 44% 29.99 in 10.0 mi North 6.9 mph - N/A   Overcast
3:52 PM 50.0 °F - 30.0 °F 46% 29.97 in 10.0 mi Calm Calm - N/A   Scattered Clouds
4:52 PM 48.9 °F - 30.0 °F 48% 29.97 in 10.0 mi ENE 4.6 mph - N/A   Scattered Clouds
5:52 PM 44.1 °F 40.8 °F 30.0 °F 58% 29.98 in 10.0 mi ENE 5.8 mph - N/A   Clear
6:52 PM 37.0 °F 34.5 °F 28.0 °F 70% 29.99 in 10.0 mi SSE 3.5 mph - N/A   Clear
7:52 PM 30.2 °F 24.3 °F 26.6 °F 86% 29.90 in 10.0 mi SSW 5.8 mph - N/A   Clear
8:52 PM 30.0 °F 24.1 °F 26.1 °F 85% 29.98 in 10.0 mi SW 5.8 mph - N/A   Clear
9:52 PM 28.9 °F - 26.1 °F 89% 29.96 in 10.0 mi Calm Calm - N/A   Clear
10:52 PM 30.0 °F - 26.1 °F 85% 29.95 in 10.0 mi Calm Calm - N/A   Clear
11:52 PM 27.0 °F - 24.1 °F 89% 29.94 in 10.0 mi Calm Calm - N/A   Clear